,,Stat1,,Stat2,,Stat3,,Stat4,,Wind1,,Wind1,
time,status,PR1M_SUM,status,RH1M_AVG,status,SR1M_AVG,status,TA1M_AVG,status,W1dAve1m,status,W1sAve1m,
1999-10-16, 00:01:01,VALID,0,VALID,99.998,VALID,-0.0339617,VALID,19.5566,VALID,207,VALID,0.564704,
1999-10-16, 00:02:00,VALID,0,VALID,99.999,VALID,-0.0339617,VALID,19.5501,VALID,203,VALID,0.696875,
1999-10-16, 00:03:00,VALID,0,VALID,100,VALID,-0.0509425,VALID,19.5467,VALID,202,VALID,0.823785,
1999-10-16, 00:04:00,VALID,0,VALID,100,VALID,-0.0509425,VALID,19.5437,VALID,187,VALID,1.05432,
1999-10-16, 00:05:00,VALID,0,VALID,100,VALID,-0.0509425,VALID,19.5404,VALID,179,VALID,1.0663,
1999-10-16, 00:06:00,VALID,0,VALID,100,VALID,-0.0679233,VALID,19.5439,VALID,183,VALID,0.939762,
1999-10-16, 00:07:00,VALID,0,VALID,100,VALID,-0.0679233,VALID,19.5439,VALID,183,VALID,0.814189,
1999-10-16, 00:08:00,VALID,0,VALID,100,VALID,-0.0339617,VALID,19.5663,VALID,180,VALID,0.958534,
1999-10-16, 00:09:00,VALID,0,VALID,100,VALID,-0.0339617,VALID,19.5696,VALID,154,VALID,0.621484,
1999-10-16, 00:10:00,VALID,0,VALID,100,VALID,-0.0679233,VALID,19.5857,VALID,160,VALID,0.552902,
1999-10-16, 00:11:00,VALID,0,VALID,100,VALID,-0.0679233,VALID,19.5793,VALID,170,VALID,0.560352,
1999-10-16, 00:12:01,VALID,0,VALID,99.9957,VALID,-0.0339617,VALID,19.5693,VALID,177,VALID,0.53125,
1999-10-16, 00:13:00,VALID,0,VALID,99.998,VALID,-0.0339617,VALID,19.5601,VALID,185,VALID,0.742188,
1999-10-16, 00:14:00,VALID,0,VALID,99.9908,VALID,-0.0169808,VALID,19.5506,VALID,174,VALID,0.667067,
1999-10-16, 00:15:00,VALID,0,VALID,99.999,VALID,-0.0509425,VALID,19.5442,VALID,180,VALID,0.690549,
1999-10-16, 00:16:00,VALID,0,VALID,99.999,VALID,-0.0679233,VALID,19.5377,VALID,179,VALID,0.848828,
1999-10-16, 00:17:00,VALID,0,VALID,100,VALID,-0.0679233,VALID,19.5442,VALID,184,VALID,0.743421,
1999-10-16, 00:18:00,VALID,0,VALID,99.999,VALID,-0.0169808,VALID,19.5342,VALID,191,VALID,0.845274,
1999-10-16, 00:19:00,VALID,0,VALID,100,VALID,-0.0679233,VALID,19.5409,VALID,189,VALID,1.09945,
1999-10-16, 00:20:00,VALID,0,VALID,99.998,VALID,-0.0339617,VALID,19.5474,VALID,191,VALID,1.16681,
1999-10-16, 00:21:00,VALID,0,VALID,100,VALID,-0.0679233,VALID,19.5469,VALID,195,VALID,1.03606,
1999-10-16, 00:22:00,VALID,0,VALID,99.998,VALID,-0.0339617,VALID,19.5469,VALID,199,VALID,1.34248,
1999-10-16, 00:23:00,VALID,0,VALID,99.9977,VALID,-0.0169808,VALID,19.5434,VALID,185,VALID,1.07237,
1999-10-16, 00:24:00,VALID,0,VALID,99.9863,VALID,-0.0169808,VALID,19.54,VALID,175,VALID,1.18215,
1999-10-16, 00:25:00,VALID,0,VALID,99.9809,VALID,-0.0169808,VALID,19.5536,VALID,174,VALID,1.09475,
1999-10-16, 00:26:00,VALID,0,VALID,99.9893,VALID,0,VALID,19.534,VALID,172,VALID,0.86022,
1999-10-16, 00:27:00,VALID,0,VALID,99.9799,VALID,-0.0339617,VALID,19.5176,VALID,174,VALID,0.651172,
1999-10-16, 00:28:00,VALID,0,VALID,99.9896,VALID,-0.0509425,VALID,19.5044,VALID,180,VALID,0.757412,
1999-10-16, 00:29:00,VALID,0,VALID,99.9934,VALID,-0.0509425,VALID,19.5113,VALID,170,VALID,0.519922,
1999-10-16, 00:30:00,VALID,0,VALID,99.9967,VALID,-0.0339617,VALID,19.5245,VALID,156,VALID,0.855058,
1999-10-16, 00:31:00,VALID,0,VALID,99.998,VALID,0,VALID,19.5076,VALID,171,VALID,0.719141,
1999-10-16, 00:32:00,VALID,0,VALID,100,VALID,-0.0169808,VALID,19.4917,VALID,170,VALID,0.83087,
1999-10-16, 00:33:00,VALID,0,VALID,100,VALID,-0.0169808,VALID,19.4952,VALID,166,VALID,0.669613,
1999-10-16, 00:34:01,VALID,0,VALID,99.999,VALID,-0.0169808,VALID,19.4952,VALID,166,VALID,0.787861,
1999-10-16, 00:35:01,VALID,0,VALID,100,VALID,-0.0169808,VALID,19.4922,VALID,163,VALID,0.986637,
1999-10-16, 00:36:00,VALID,0,VALID,100,VALID,0,VALID,19.479,VALID,164,VALID,0.916174,
1999-10-16, 00:37:00,VALID,0,VALID,100,VALID,-0.0169808,VALID,19.4763,VALID,175,VALID,0.749794,
1999-10-16, 00:38:00,VALID,0,VALID,100,VALID,-0.0339617,VALID,19.4661,VALID,173,VALID,0.732113,
1999-10-16, 00:39:00,VALID,0,VALID,100,VALID,0.0849042,VALID,19.4512,VALID,175,VALID,0.702724,
1999-10-16, 00:40:00,VALID,0,VALID,100,VALID,0.0849042,VALID,19.4387,VALID,188,VALID,0.648237,
1999-10-16, 00:41:00,VALID,0,VALID,100,VALID,0.101885,VALID,19.4419,VALID,193,VALID,1.09199,
1999-10-16, 00:42:00,VALID,0,VALID,100,VALID,0.0849042,VALID,19.4452,VALID,193,VALID,1.06607,
1999-10-16, 00:43:00,VALID,0,VALID,100,VALID,0.0169808,VALID,19.4554,VALID,192,VALID,0.914844,
1999-10-16, 00:44:00,VALID,0,VALID,100,VALID,0.0849042,VALID,19.4551,VALID,187,VALID,0.722656,
1999-10-16, 00:45:00,VALID,0,VALID,100,VALID,0.0849042,VALID,19.4482,VALID,193,VALID,0.953758,
1999-10-16, 00:46:01,VALID,0,VALID,100,VALID,0.0679233,VALID,19.4417,VALID,204,VALID,0.748798,
1999-10-16, 00:47:00,VALID,0,VALID,99.9977,VALID,0.0849042,VALID,19.435,VALID,203,VALID,0.912919,
1999-10-16, 00:48:00,VALID,0,VALID,100,VALID,0.0679233,VALID,19.439,VALID,206,VALID,1.04707,
1999-10-16, 00:49:00,VALID,0,VALID,100,VALID,0.101885,VALID,19.4255,VALID,196,VALID,1.14535,
1999-10-16, 00:50:00,VALID,0,VALID,99.999,VALID,0.101885,VALID,19.4253,VALID,199,VALID,1.08556,
1999-10-16, 00:51:00,VALID,0,VALID,100,VALID,0.0849042,VALID,19.4452,VALID,193,VALID,1.39907,
1999-10-16, 00:52:00,VALID,0,VALID,99.9967,VALID,0.118866,VALID,19.4417,VALID,189,VALID,1.25866,
1999-10-16, 00:53:00,VALID,0,VALID,99.998,VALID,0.0679233,VALID,19.4352,VALID,185,VALID,1.13722,
1999-10-16, 00:54:00,VALID,0,VALID,99.9837,VALID,-0.101885,VALID,19.4407,VALID,190,VALID,0.98522,
1999-10-16, 00:55:00,VALID,0,VALID,99.9697,VALID,-0.101885,VALID,19.4409,VALID,198,VALID,0.920641,
1999-10-16, 00:56:00,VALID,0,VALID,99.9405,VALID,-0.118866,VALID,19.4412,VALID,185,VALID,0.943051,
1999-10-16, 00:57:01,VALID,0,VALID,99.9379,VALID,-0.0849042,VALID,19.425,VALID,189,VALID,0.873598,
1999-10-16, 00:58:00,VALID,0,VALID,99.929,VALID,-0.101885,VALID,19.4053,VALID,188,VALID,0.866343,
1999-10-16, 00:59:00,VALID,0,VALID,99.9354,VALID,-0.101885,VALID,19.4153,VALID,191,VALID,0.67832,
1999-10-16, 01:00:00,VALID,0,VALID,99.924,VALID,-0.0849042,VALID,19.3954,VALID,188,VALID,0.563502,
1999-10-16, 01:01:00,VALID,0,VALID,99.9125,VALID,-0.101885,VALID,19.3792,VALID,178,VALID,0.367969,
1999-10-16, 01:02:00,VALID,0,VALID,99.9316,VALID,-0.0679233,VALID,19.3755,VALID,185,VALID,0,
1999-10-16, 01:03:00,VALID,0,VALID,99.9303,VALID,-0.0849042,VALID,19.3762,VALID,187,VALID,0,
1999-10-16, 01:04:00,VALID,0,VALID,99.9341,VALID,-0.101885,VALID,19.3837,VALID,198,VALID,0,
1999-10-16, 01:05:00,VALID,0,VALID,99.9354,VALID,-0.101885,VALID,19.3732,VALID,203,VALID,0,
1999-10-16, 01:06:01,VALID,0,VALID,99.9608,VALID,-0.135847,VALID,19.3797,VALID,200,VALID,0.88101,
1999-10-16, 01:07:00,VALID,0,VALID,99.943,VALID,-0.0849042,VALID,19.3735,VALID,193,VALID,1.11863,
1999-10-16, 01:08:01,VALID,0,VALID,99.9494,VALID,-0.0849042,VALID,19.373,VALID,193,VALID,0.933699,
1999-10-16, 01:09:00,VALID,0,VALID,99.957,VALID,0,VALID,19.3715,VALID,192,VALID,0.807977,
1999-10-16, 01:10:00,VALID,0,VALID,99.9494,VALID,0.0339617,VALID,19.378,VALID,189,VALID,0.602179,
1999-10-16, 01:11:00,VALID,0,VALID,99.943,VALID,0,VALID,19.3852,VALID,180,VALID,0.511018,
1999-10-16, 01:12:00,VALID,0,VALID,99.9265,VALID,0,VALID,19.3815,VALID,163,VALID,0.223958,
1999-10-16, 01:13:00,VALID,0,VALID,99.924,VALID,0,VALID,19.3718,VALID,174,VALID,0.533789,
1999-10-16, 01:14:00,VALID,0,VALID,99.8985,VALID,0.0169808,VALID,19.3685,VALID,181,VALID,0.596205,
1999-10-16, 01:15:00,VALID,0,VALID,99.8947,VALID,0.0169808,VALID,19.3489,VALID,185,VALID,0.741992,
1999-10-16, 01:16:00,VALID,0,VALID,99.8884,VALID,0.0169808,VALID,19.336,VALID,187,VALID,0.833676,
1999-10-16, 01:17:00,VALID,0,VALID,99.8744,VALID,-0.0169808,VALID,19.3402,VALID,176,VALID,0.904772,
1999-10-16, 01:18:00,VALID,0,VALID,99.8553,VALID,-0.0339617,VALID,19.327,VALID,170,VALID,0.91226,
1999-10-16, 01:19:01,VALID,0,VALID,99.8286,VALID,0,VALID,19.3141,VALID,175,VALID,0.875,
1999-10-16, 01:20:00,VALID,0,VALID,99.8197,VALID,-0.0169808,VALID,19.3044,VALID,174,VALID,1.08262,
1999-10-16, 01:21:00,VALID,0,VALID,99.8273,VALID,-0.0169808,VALID,19.3009,VALID,181,VALID,0.853002,
1999-10-16, 01:22:00,VALID,0,VALID,99.8235,VALID,0,VALID,19.317,VALID,179,VALID,0.959985,
1999-10-16, 01:23:00,VALID,0,VALID,99.8133,VALID,-0.0169808,VALID,19.3272,VALID,204,VALID,0.658361,
1999-10-16, 01:24:00,VALID,0,VALID,99.8146,VALID,-0.118866,VALID,19.3312,VALID,203,VALID,0.744932,
1999-10-16, 01:25:00,VALID,0,VALID,99.7587,VALID,-0.118866,VALID,19.3444,VALID,190,VALID,0.755809,
1999-10-16, 01:26:00,VALID,0,VALID,99.7396,VALID,-0.118866,VALID,19.3349,VALID,201,VALID,0.743032,
1999-10-16, 01:27:00,VALID,0,VALID,99.723,VALID,-0.101885,VALID,19.3441,VALID,196,VALID,0.907484,
1999-10-16, 01:28:00,VALID,0,VALID,99.6862,VALID,-0.0849042,VALID,19.3511,VALID,199,VALID,0.979441,
1999-10-16, 01:29:00,VALID,0,VALID,99.6607,VALID,-0.101885,VALID,19.3409,VALID,199,VALID,0.842949,
1999-10-16, 01:30:01,VALID,0,VALID,99.6455,VALID,-0.101885,VALID,19.3508,VALID,199,VALID,0.867188,
1999-10-16, 01:31:00,VALID,0,VALID,99.6493,VALID,-0.101885,VALID,19.3511,VALID,198,VALID,1.02773,
1999-10-16, 01:32:00,VALID,0,VALID,99.6671,VALID,-0.101885,VALID,19.3479,VALID,192,VALID,1.20232,
1999-10-16, 01:33:00,VALID,0,VALID,99.6569,VALID,-0.118866,VALID,19.3444,VALID,189,VALID,1.46504,
1999-10-16, 01:34:00,VALID,0,VALID,99.6582,VALID,-0.101885,VALID,19.3409,VALID,188,VALID,1.27878,
1999-10-16, 01:35:00,VALID,0,VALID,99.6506,VALID,-0.0849042,VALID,19.3377,VALID,191,VALID,1.19941,
1999-10-16, 01:36:00,VALID,0,VALID,99.6569,VALID,-0.101885,VALID,19.3481,VALID,189,VALID,1.29434,
1999-10-16, 01:37:00,VALID,0,VALID,99.6582,VALID,-0.101885,VALID,19.3344,VALID,174,VALID,1.05152,
1999-10-16, 01:38:00,VALID,0,VALID,99.662,VALID,-0.101885,VALID,19.3377,VALID,175,VALID,1.09195,
1999-10-16, 01:39:00,VALID,0,VALID,99.6595,VALID,0,VALID,19.3432,VALID,177,VALID,0.684827,
1999-10-16, 01:40:01,VALID,0,VALID,99.6849,VALID,0,VALID,19.3267,VALID,188,VALID,1.01964,
1999-10-16, 01:41:00,VALID,0,VALID,99.7141,VALID,0,VALID,19.3397,VALID,196,VALID,0.771587,
1999-10-16, 01:42:00,VALID,0,VALID,99.7434,VALID,0,VALID,19.3327,VALID,219,VALID,0.896793,
1999-10-16, 01:43:00,VALID,0,VALID,99.7523,VALID,0,VALID,19.3489,VALID,221,VALID,1.02083,
1999-10-16, 01:44:00,VALID,0,VALID,99.7752,VALID,-0.0169808,VALID,19.3521,VALID,222,VALID,1.13241,
1999-10-16, 01:45:00,VALID,0,VALID,99.8108,VALID,0.0169808,VALID,19.3591,VALID,212,VALID,1.01035,
1999-10-16, 01:46:00,VALID,0,VALID,99.8159,VALID,0,VALID,19.3653,VALID,212,VALID,0.94442,
1999-10-16, 01:47:00,VALID,0,VALID,99.8197,VALID,0,VALID,19.3487,VALID,194,VALID,1.30156,
1999-10-16, 01:48:00,VALID,0,VALID,99.8349,VALID,0.0509425,VALID,19.3626,VALID,195,VALID,1.31928,
1999-10-16, 01:49:00,VALID,0,VALID,99.8337,VALID,0.0169808,VALID,19.3588,VALID,196,VALID,1.36993,
1999-10-16, 01:50:00,VALID,0,VALID,99.826,VALID,0.0169808,VALID,19.3685,VALID,199,VALID,1.0615,
1999-10-16, 01:51:00,VALID,0,VALID,99.8133,VALID,0,VALID,19.3748,VALID,207,VALID,0.964558,
1999-10-16, 01:52:00,VALID,0,VALID,99.7943,VALID,0,VALID,19.3815,VALID,210,VALID,1.18613,
1999-10-16, 01:53:00,VALID,0,VALID,99.7815,VALID,-0.0169808,VALID,19.3979,VALID,210,VALID,1.0403,
1999-10-16, 01:54:00,VALID,0,VALID,99.7688,VALID,0,VALID,19.3845,VALID,211,VALID,0.884527,
1999-10-16, 01:55:00,VALID,0,VALID,99.7447,VALID,-0.0169808,VALID,19.3977,VALID,199,VALID,1.19215,
1999-10-16, 01:56:00,VALID,0,VALID,99.7307,VALID,-0.0339617,VALID,19.3909,VALID,193,VALID,1.08087,
1999-10-16, 01:57:00,VALID,0,VALID,99.7129,VALID,0,VALID,19.4046,VALID,201,VALID,0.773438,
1999-10-16, 01:58:00,VALID,0,VALID,99.6951,VALID,0,VALID,19.4009,VALID,172,VALID,0.639358,
1999-10-16, 01:59:00,VALID,0,VALID,99.6378,VALID,0,VALID,19.3974,VALID,169,VALID,1.14083,
1999-10-16, 02:00:00,VALID,0,VALID,99.5844,VALID,0,VALID,19.4111,VALID,167,VALID,0.830592,
1999-10-16, 02:01:00,VALID,0,VALID,99.5361,VALID,0,VALID,19.42,VALID,154,VALID,0.863782,
1999-10-16, 02:02:00,VALID,0,VALID,99.498,VALID,0,VALID,19.4459,VALID,156,VALID,0.655405,
1999-10-16, 02:03:00,VALID,0,VALID,99.4522,VALID,0,VALID,19.4529,VALID,168,VALID,0.473437,
1999-10-16, 02:04:00,VALID,0,VALID,99.4179,VALID,0.0169808,VALID,19.4397,VALID,187,VALID,0.592548,
1999-10-16, 02:05:00,VALID,0,VALID,99.409,VALID,0,VALID,19.433,VALID,190,VALID,0.698438,
1999-10-16, 02:06:00,VALID,0,VALID,99.4166,VALID,0,VALID,19.433,VALID,193,VALID,0.671669,
1999-10-16, 02:07:00,VALID,0,VALID,99.3937,VALID,0,VALID,19.4394,VALID,199,VALID,0.816211,
1999-10-16, 02:08:00,VALID,0,VALID,99.292,VALID,0,VALID,19.4233,VALID,199,VALID,0.889147,
1999-10-16, 02:09:00,VALID,0,VALID,99.2843,VALID,0,VALID,19.4268,VALID,181,VALID,0.729096,
1999-10-16, 02:10:00,VALID,0,VALID,99.2437,VALID,0.0169808,VALID,19.4265,VALID,189,VALID,0.81891,
1999-10-16, 02:11:00,VALID,0,VALID,99.2449,VALID,0.0169808,VALID,19.4295,VALID,208,VALID,0.760074,
1999-10-16, 02:12:00,VALID,0,VALID,99.2513,VALID,0,VALID,19.4399,VALID,207,VALID,1.03864,
1999-10-16, 02:13:00,VALID,0,VALID,99.208,VALID,0,VALID,19.4268,VALID,205,VALID,1.0662,
1999-10-16, 02:14:00,VALID,0,VALID,99.2093,VALID,0,VALID,19.4268,VALID,202,VALID,0.91653,
1999-10-16, 02:15:00,VALID,0,VALID,99.2093,VALID,0,VALID,19.4233,VALID,197,VALID,0.748998,
1999-10-16, 02:16:00,VALID,0,VALID,99.1941,VALID,0.0169808,VALID,19.436,VALID,202,VALID,0.836739,
1999-10-16, 02:17:00,VALID,0,VALID,99.1813,VALID,0.0169808,VALID,19.4392,VALID,211,VALID,0.963086,
1999-10-16, 02:18:00,VALID,0,VALID,99.1712,VALID,0.0169808,VALID,19.4362,VALID,215,VALID,1.16317,
1999-10-16, 02:19:00,VALID,0,VALID,99.1661,VALID,0.0169808,VALID,19.4297,VALID,210,VALID,1.17129,
1999-10-16, 02:20:00,VALID,0,VALID,99.1788,VALID,0,VALID,19.4467,VALID,205,VALID,0.991776,
1999-10-16, 02:21:00,VALID,0,VALID,99.1775,VALID,0,VALID,19.4397,VALID,195,VALID,0.841639,
1999-10-16, 02:22:00,VALID,0,VALID,99.1801,VALID,0,VALID,19.43,VALID,202,VALID,1.06176,
1999-10-16, 02:23:00,VALID,0,VALID,99.1737,VALID,0,VALID,19.437,VALID,194,VALID,0.994093,
1999-10-16, 02:24:00,VALID,0,VALID,99.1724,VALID,-0.0169808,VALID,19.4365,VALID,203,VALID,0.974805,
1999-10-16, 02:25:00,VALID,0,VALID,99.1788,VALID,-0.0169808,VALID,19.4424,VALID,217,VALID,1.01316,
1999-10-16, 02:26:00,VALID,0,VALID,99.1686,VALID,0,VALID,19.4494,VALID,206,VALID,1.09909,
1999-10-16, 02:27:00,VALID,0,VALID,99.1712,VALID,0,VALID,19.4462,VALID,212,VALID,0.816512,
1999-10-16, 02:28:00,VALID,0,VALID,99.1763,VALID,0.0169808,VALID,19.4429,VALID,206,VALID,0.971706,
1999-10-16, 02:29:00,VALID,0,VALID,99.1521,VALID,-0.0169808,VALID,19.4531,VALID,207,VALID,1.08974,
1999-10-16, 02:30:00,VALID,0,VALID,99.1445,VALID,0,VALID,19.4621,VALID,205,VALID,0.867399,
1999-10-16, 02:31:00,VALID,0,VALID,99.147,VALID,0.0169808,VALID,19.475,VALID,193,VALID,0.765008,
1999-10-16, 02:32:00,VALID,0,VALID,99.1127,VALID,0,VALID,19.4718,VALID,200,VALID,0.850123,
1999-10-16, 02:33:00,VALID,0,VALID,99.0644,VALID,0,VALID,19.4686,VALID,209,VALID,0.744391,
1999-10-16, 02:34:00,VALID,0,VALID,99.0618,VALID,-0.0169808,VALID,19.4817,VALID,213,VALID,0.756757,
1999-10-16, 02:35:01,VALID,0,VALID,99.0389,VALID,-0.0169808,VALID,19.4785,VALID,208,VALID,0.908203,
1999-10-16, 02:36:00,VALID,0,VALID,98.9753,VALID,-0.0169808,VALID,19.4686,VALID,199,VALID,0.973758,
1999-10-16, 02:37:00,VALID,0,VALID,98.913,VALID,-0.0169808,VALID,19.4589,VALID,186,VALID,1.13789,
1999-10-16, 02:38:00,VALID,0,VALID,98.8469,VALID,0,VALID,19.4852,VALID,184,VALID,0.99116,
1999-10-16, 02:39:00,VALID,0,VALID,98.8367,VALID,0,VALID,19.488,VALID,202,VALID,0.623438,
1999-10-16, 02:40:00,VALID,0,VALID,98.8164,VALID,0,VALID,19.5046,VALID,193,VALID,0.751478,
1999-10-16, 02:41:00,VALID,0,VALID,98.7719,VALID,-0.0169808,VALID,19.4845,VALID,181,VALID,0.834671,
1999-10-16, 02:42:00,VALID,0,VALID,98.7782,VALID,-0.0339617,VALID,19.4914,VALID,182,VALID,0.707933,
1999-10-16, 02:43:00,VALID,0,VALID,98.749,VALID,0,VALID,19.4785,VALID,175,VALID,1.01748,
1999-10-16, 02:44:00,VALID,0,VALID,98.7287,VALID,0,VALID,19.4718,VALID,181,VALID,1.22192,
1999-10-16, 02:45:00,VALID,0,VALID,98.7045,VALID,-0.0169808,VALID,19.4686,VALID,179,VALID,0.849095,
1999-10-16, 02:46:00,VALID,0,VALID,98.7007,VALID,0,VALID,19.4855,VALID,177,VALID,0.715255,
1999-10-16, 02:47:00,VALID,0,VALID,98.7019,VALID,-0.0509425,VALID,19.4922,VALID,171,VALID,1.0006,
1999-10-16, 02:48:00,VALID,0,VALID,98.688,VALID,-0.0169808,VALID,19.4919,VALID,196,VALID,0.818309,
1999-10-16, 02:49:00,VALID,0,VALID,98.6752,VALID,0,VALID,19.4914,VALID,203,VALID,0.924023,
1999-10-16, 02:50:00,VALID,0,VALID,98.6384,VALID,0.0169808,VALID,19.4783,VALID,194,VALID,1.34732,
1999-10-16, 02:51:00,VALID,0,VALID,98.604,VALID,0,VALID,19.4783,VALID,189,VALID,1.50645,
1999-10-16, 02:52:00,VALID,0,VALID,98.5761,VALID,0,VALID,19.4847,VALID,189,VALID,1.38199,
1999-10-16, 02:53:00,VALID,0,VALID,98.5697,VALID,0,VALID,19.4785,VALID,187,VALID,1.29286,
1999-10-16, 02:54:00,VALID,0,VALID,98.5786,VALID,0,VALID,19.488,VALID,186,VALID,1.03345,
1999-10-16, 02:55:00,VALID,0,VALID,98.6142,VALID,0.0169808,VALID,19.4882,VALID,205,VALID,0.786776,
1999-10-16, 02:56:00,VALID,0,VALID,98.6587,VALID,0.0169808,VALID,19.4914,VALID,209,VALID,0.669531,
1999-10-16, 02:57:01,VALID,0,VALID,98.7172,VALID,0,VALID,19.4882,VALID,211,VALID,1.17002,
1999-10-16, 02:58:00,VALID,0,VALID,98.8164,VALID,0.0339617,VALID,19.4718,VALID,203,VALID,1.20903,
1999-10-16, 02:59:00,VALID,0,VALID,98.8736,VALID,0,VALID,19.4658,VALID,205,VALID,0.868877,
1999-10-16, 03:00:00,VALID,0,VALID,98.9537,VALID,0.0169808,VALID,19.4397,VALID,195,VALID,1.20608,
1999-10-16, 03:01:00,VALID,0,VALID,99.0046,VALID,0.0169808,VALID,19.4397,VALID,194,VALID,1.27624,
1999-10-16, 03:02:00,VALID,0,VALID,99.0529,VALID,0.0169808,VALID,19.437,VALID,192,VALID,1.26584,
1999-10-16, 03:03:00,VALID,0,VALID,99.0885,VALID,0,VALID,19.4268,VALID,185,VALID,1.45909,
1999-10-16, 03:04:00,VALID,0,VALID,99.1089,VALID,0.0169808,VALID,19.4133,VALID,188,VALID,1.2905,
1999-10-16, 03:05:00,VALID,0,VALID,99.1076,VALID,0,VALID,19.4342,VALID,186,VALID,1.08454,
1999-10-16, 03:06:00,VALID,0,VALID,99.1292,VALID,0.0849042,VALID,19.436,VALID,204,VALID,1.00718,
1999-10-16, 03:07:01,VALID,0,VALID,99.105,VALID,0,VALID,19.4365,VALID,192,VALID,1.37656,
1999-10-16, 03:08:01,VALID,0,VALID,99.1,VALID,0,VALID,19.4496,VALID,206,VALID,0.813301,
1999-10-16, 03:09:00,VALID,0,VALID,99.0631,VALID,0,VALID,19.4564,VALID,203,VALID,1.26406,
1999-10-16, 03:10:00,VALID,0,VALID,99.0173,VALID,0,VALID,19.4656,VALID,202,VALID,1.20683,
1999-10-16, 03:11:00,VALID,0,VALID,98.9703,VALID,0.0169808,VALID,19.4688,VALID,211,VALID,1.12754,
1999-10-16, 03:12:00,VALID,0,VALID,98.9079,VALID,0,VALID,19.4788,VALID,208,VALID,1.23226,
1999-10-16, 03:13:00,VALID,0,VALID,98.8456,VALID,0,VALID,19.485,VALID,203,VALID,1.28252,
1999-10-16, 03:14:00,VALID,0,VALID,98.7821,VALID,0,VALID,19.488,VALID,206,VALID,1.30389,
1999-10-16, 03:15:00,VALID,0,VALID,98.7172,VALID,0,VALID,19.4982,VALID,199,VALID,1.14782,
1999-10-16, 03:16:00,VALID,0,VALID,98.6981,VALID,0,VALID,19.4912,VALID,196,VALID,1.11043,
1999-10-16, 03:17:00,VALID,0,VALID,98.6663,VALID,0,VALID,19.5079,VALID,181,VALID,1.02508,
1999-10-16, 03:18:00,VALID,0,VALID,98.6371,VALID,0.0169808,VALID,19.4944,VALID,171,VALID,0.950863,
1999-10-16, 03:19:00,VALID,0,VALID,98.6536,VALID,0.0339617,VALID,19.4977,VALID,197,VALID,0.451522,
1999-10-16, 03:20:00,VALID,0,VALID,98.6689,VALID,0.0169808,VALID,19.5009,VALID,211,VALID,0.590946,
1999-10-16, 03:21:00,VALID,0,VALID,98.6536,VALID,0.0169808,VALID,19.4812,VALID,186,VALID,0.834766,
1999-10-16, 03:22:00,VALID,0,VALID,98.5862,VALID,0.0169808,VALID,19.4852,VALID,177,VALID,1.1442,
1999-10-16, 03:23:00,VALID,0,VALID,98.5417,VALID,0,VALID,19.4977,VALID,162,VALID,0.932617,
1999-10-16, 03:24:00,VALID,0,VALID,98.4832,VALID,0.0339617,VALID,19.5146,VALID,193,VALID,0.818668,
1999-10-16, 03:25:00,VALID,0,VALID,98.468,VALID,0.0339617,VALID,19.5208,VALID,201,VALID,0.623522,
1999-10-16, 03:26:00,VALID,0,VALID,98.4146,VALID,0.0169808,VALID,19.5106,VALID,196,VALID,0.939904,
1999-10-16, 03:27:00,VALID,0,VALID,98.3917,VALID,0.0339617,VALID,19.5171,VALID,187,VALID,0.598514,
1999-10-16, 03:28:00,VALID,0,VALID,98.379,VALID,0.0339617,VALID,19.5141,VALID,186,VALID,0.586523,
1999-10-16, 03:29:01,VALID,0,VALID,98.3497,VALID,0.0509425,VALID,19.5044,VALID,185,VALID,0.744038,
1999-10-16, 03:30:01,VALID,0,VALID,98.4031,VALID,0,VALID,19.5074,VALID,198,VALID,0.216273,
1999-10-16, 03:31:00,VALID,0,VALID,98.4718,VALID,0.0169808,VALID,19.5009,VALID,213,VALID,0,
1999-10-16, 03:32:00,VALID,0,VALID,98.5036,VALID,0.0509425,VALID,19.4885,VALID,250,VALID,0.215794,
1999-10-16, 03:33:00,VALID,0,VALID,98.5176,VALID,0.0169808,VALID,19.4783,VALID,195,VALID,0.282051,
1999-10-16, 03:34:00,VALID,0,VALID,98.5227,VALID,0.0169808,VALID,19.4718,VALID,173,VALID,0.646959,
1999-10-16, 03:35:00,VALID,0,VALID,98.5735,VALID,0,VALID,19.4651,VALID,155,VALID,0.164474,
1999-10-16, 03:36:00,VALID,0,VALID,98.6473,VALID,0.0339617,VALID,19.4586,VALID,163,VALID,0,
1999-10-16, 03:37:00,VALID,0,VALID,98.6384,VALID,0.0339617,VALID,19.4556,VALID,171,VALID,0.187099,
1999-10-16, 03:38:00,VALID,0,VALID,98.6625,VALID,0,VALID,19.4427,VALID,152,VALID,0.341427,
1999-10-16, 03:39:00,VALID,0,VALID,98.6918,VALID,0,VALID,19.4392,VALID,141,VALID,0.684375,
1999-10-16, 03:40:01,VALID,0,VALID,98.688,VALID,0.0509425,VALID,19.4529,VALID,134,VALID,0.570112,
1999-10-16, 03:41:01,VALID,0,VALID,98.6803,VALID,0.0169808,VALID,19.43,VALID,137,VALID,0.370703,
1999-10-16, 03:42:00,VALID,0,VALID,98.6994,VALID,0.0169808,VALID,19.4074,VALID,143,VALID,0.336965,
1999-10-16, 03:43:00,VALID,0,VALID,98.6918,VALID,0.0169808,VALID,19.3847,VALID,171,VALID,0.288086,
1999-10-16, 03:44:00,VALID,0,VALID,98.7083,VALID,0,VALID,19.3521,VALID,171,VALID,0.106419,
1999-10-16, 03:45:00,VALID,0,VALID,98.7312,VALID,0,VALID,19.32,VALID,171,VALID,0,
1999-10-16, 03:46:00,VALID,0,VALID,98.7846,VALID,0.0339617,VALID,19.3073,VALID,171,VALID,0,
1999-10-16, 03:47:00,VALID,0,VALID,98.8418,VALID,0,VALID,19.2879,VALID,171,VALID,0,
1999-10-16, 03:48:00,VALID,0,VALID,98.8838,VALID,0.0339617,VALID,19.2715,VALID,169,VALID,0.0456081,
1999-10-16, 03:49:00,VALID,0,VALID,98.9168,VALID,0,VALID,19.2457,VALID,166,VALID,0,
1999-10-16, 03:50:00,VALID,0,VALID,98.9461,VALID,0.0339617,VALID,19.2302,VALID,160,VALID,0,
1999-10-16, 03:51:00,VALID,0,VALID,98.9703,VALID,0.0509425,VALID,19.1874,VALID,149,VALID,0.0366587,
1999-10-16, 03:52:01,VALID,0,VALID,99.0186,VALID,0.0169808,VALID,19.178,VALID,138,VALID,0.600761,
1999-10-16, 03:53:00,VALID,0,VALID,99.0402,VALID,0,VALID,19.1484,VALID,132,VALID,0.676172,
1999-10-16, 03:54:00,VALID,0,VALID,99.0656,VALID,0.0169808,VALID,19.1225,VALID,133,VALID,0.803125,
1999-10-16, 03:55:00,VALID,0,VALID,99.1114,VALID,-0.0169808,VALID,19.1098,VALID,136,VALID,0.920508,
1999-10-16, 03:56:00,VALID,0,VALID,99.1915,VALID,0,VALID,19.1168,VALID,139,VALID,0.87685,
1999-10-16, 03:57:00,VALID,0,VALID,99.2131,VALID,0.0169808,VALID,19.1066,VALID,155,VALID,0.736486,
1999-10-16, 03:58:00,VALID,0,VALID,99.2322,VALID,-0.0169808,VALID,19.081,VALID,176,VALID,0.713141,
1999-10-16, 03:59:00,VALID,0,VALID,99.2729,VALID,0,VALID,19.0907,VALID,193,VALID,0.830221,
1999-10-16, 04:00:00,VALID,0,VALID,99.2958,VALID,0,VALID,19.0745,VALID,191,VALID,0.866797,
1999-10-16, 04:01:00,VALID,0,VALID,99.3606,VALID,0,VALID,19.081,VALID,190,VALID,1.03084,
1999-10-16, 04:02:01,VALID,0,VALID,99.3797,VALID,0.0339617,VALID,19.0941,VALID,196,VALID,1.05583,
1999-10-16, 04:03:01,VALID,0,VALID,99.4026,VALID,0,VALID,19.0874,VALID,196,VALID,0.981841,
1999-10-16, 04:04:00,VALID,0,VALID,99.4229,VALID,-0.0849042,VALID,19.0991,VALID,193,VALID,0.98353,
1999-10-16, 04:05:00,VALID,0,VALID,99.428,VALID,-0.0849042,VALID,19.0889,VALID,199,VALID,0.834135,
1999-10-16, 04:06:00,VALID,0,VALID,99.4204,VALID,-0.101885,VALID,19.0797,VALID,197,VALID,0.782728,
1999-10-16, 04:07:00,VALID,0,VALID,99.4662,VALID,-0.101885,VALID,19.0725,VALID,192,VALID,0.894531,
1999-10-16, 04:08:00,VALID,0,VALID,99.4357,VALID,-0.101885,VALID,19.0665,VALID,189,VALID,0.787829,